Ely, NV

9:35 AM PST on February 23, 2017 (GMT -0800)
Ely

Weather History for KELY - May, 2013

Change the Weather History Date:

Sunday, May 26, 2013

  Actual Average Record
Temperature  
Mean Temperature 58 °F 53 °F  
Max Temperature 76 °F 71 °F 88 °F (1986)
Min Temperature 40 °F 36 °F 23 °F (1950)
Degree Days  
Heating Degree Days 7 12  
Month to date heating degree days 361 389  
Since 1 July heating degree days 6996 7292  
Cooling Degree Days 0 0  
Month to date cooling degree days 0 0  
Year to date cooling degree days 0 0  
Growing Degree Days 8 (Base 50)    
Moisture  
Dew Point 15 °F    
Average Humidity 21    
Maximum Humidity 31    
Minimum Humidity 10    
Precipitation  
Precipitation 0.00 in 0.04 in 0.83 in (1941)
Month to date precipitation 0.48 0.93  
Year to date precipitation 3.04 4.26  
Snow  
Snow 0.00 in 0.00 in 0.00 in (1893)
Month to date snowfall 0.0 2.2  
Since 1 July snowfall 65.0 50.6  
Snow Depth 0.00 in    
Sea Level Pressure  
Sea Level Pressure 29.74 in    
Wind  
Wind Speed 11 mph (SSW)    
Max Wind Speed 24 mph    
Max Gust Speed 36 mph    
Visibility 10 miles    
Events      
T = Trace of Precipitation, MM = Missing Value Source: NWS Daily Summary

Daily Weather History Graph

Daily Weather History Graph

Search for Another Location

Airport or City:

Trip Planner

Search our weather history database for the weather conditions in past years. The results will help you decide how hot, cold, wet, or windy it might be!

Date:

Astronomy

May. 26, 2013 Rise Set
Actual Time 5:17 AM PDT 7:55 PM PDT
Civil Twilight 4:46 AM PDT 8:27 PM PDT
Nautical Twilight 4:07 AM PDT 9:06 PM PDT
Astronomical Twilight 3:23 AM PDT 9:50 PM PDT
Moon 9:47 PM PDT (5/26) 6:51 AM PDT (5/26)
Length of Visible Light 15h 40m
Length of Day
14h 38m
Waning Gibbous, 96% of the Moon is Illuminated
May 26
Waning Gibbous
May 31
Last Quarter
Jun 8
New
Jun 16
First Quarter
Jun 23
Full

Hourly Weather History & Observations

Time (PDT) Temp. Windchill Dew Point Humidity Pressure Visibility Wind Dir Wind Speed Gust Speed Precip Events Conditions
12:53 AM 51.1 °F - 10.9 °F 20% 29.74 in 10.0 mi SSW 9.2 mph - N/A   Clear
1:53 AM 50.0 °F - 10.9 °F 21% 29.73 in 10.0 mi South 12.7 mph - N/A   Clear
2:53 AM 46.0 °F 39.6 °F 12.0 °F 25% 29.74 in 10.0 mi South 15.0 mph - N/A   Clear
3:53 AM 46.0 °F 39.3 °F 12.9 °F 26% 29.74 in 10.0 mi South 16.1 mph - N/A   Clear
4:53 AM 45.0 °F 38.5 °F 12.9 °F 27% 29.75 in 10.0 mi South 13.8 mph - N/A   Clear
5:53 AM 44.1 °F 39.5 °F 15.1 °F 31% 29.76 in 10.0 mi SW 8.1 mph - N/A   Clear
6:53 AM 53.1 °F - 16.0 °F 23% 29.74 in 10.0 mi South 10.4 mph - N/A   Clear
7:53 AM 59.0 °F - 17.1 °F 20% 29.74 in 10.0 mi South 8.1 mph - N/A   Clear
8:53 AM 63.0 °F - 16.0 °F 16% 29.73 in 10.0 mi SSE 8.1 mph - N/A   Clear
9:53 AM 66.0 °F - 16.0 °F 15% 29.74 in 10.0 mi SSW 12.7 mph 17.3 mph N/A   Clear
10:53 AM 66.9 °F - 17.1 °F 15% 29.73 in 10.0 mi SW 9.2 mph 19.6 mph N/A   Clear
11:53 AM 70.0 °F - 17.1 °F 13% 29.72 in 10.0 mi Calm Calm - N/A   Clear
12:53 PM 73.0 °F - 19.0 °F 13% 29.71 in 10.0 mi South 13.8 mph 25.3 mph N/A   Clear
1:53 PM 73.9 °F - 18.0 °F 12% 29.70 in 10.0 mi SSW 12.7 mph 23.0 mph N/A   Scattered Clouds
2:53 PM 75.0 °F - 18.0 °F 12% 29.69 in 10.0 mi SSW 13.8 mph 29.9 mph N/A   Clear
3:53 PM 73.9 °F - 16.0 °F 11% 29.69 in 10.0 mi SSW 19.6 mph 32.2 mph N/A   Clear
4:53 PM 72.0 °F - 17.1 °F 12% 29.70 in 10.0 mi South 19.6 mph 27.6 mph N/A   Clear
5:53 PM 70.0 °F - 15.1 °F 12% 29.72 in 10.0 mi SW 16.1 mph 25.3 mph N/A   Clear
6:53 PM 70.0 °F - 10.0 °F 10% 29.70 in 10.0 mi SW 18.4 mph 27.6 mph N/A   Clear
7:53 PM 62.1 °F - 16.0 °F 17% 29.73 in 10.0 mi West 5.8 mph - N/A   Clear
8:53 PM 57.9 °F - 14.0 °F 18% 29.77 in 10.0 mi Calm Calm - N/A   Clear
9:53 PM 55.9 °F - 12.9 °F 18% 29.79 in 10.0 mi WNW 5.8 mph - N/A   Clear
10:53 PM 51.1 °F - 14.0 °F 23% 29.81 in 10.0 mi NW 4.6 mph - N/A   Clear
11:53 PM 42.1 °F 40.2 °F 12.9 °F 31% 29.85 in 10.0 mi WSW 3.5 mph - N/A   Clear